Stations météo

Publicité
Strasbourg, France (7190): Température de l'air & dewpoint: 10.07.2019 00:00:00 - 16.07.2019 00:00:00 (CEST)Strasbourg, France (7190): Température de l'air 5cm: 10.07.2019 00:00:00 - 16.07.2019 00:00:00 (CEST)Strasbourg, France (7190): Température de l'air -20cm & Température de l'air -100cm: 10.07.2019 00:00:00 - 16.07.2019 00:00:00 (CEST)Strasbourg, France (7190): Vitesse du vent & gusts: 10.07.2019 00:00:00 - 16.07.2019 00:00:00 (CEST)Strasbourg, France (7190): Direction du vent: 10.07.2019 00:00:00 - 16.07.2019 00:00:00 (CEST)Strasbourg, France (7190): reduced air pressure: 10.07.2019 00:00:00 - 16.07.2019 00:00:00 (CEST)Strasbourg, France (7190): visibility: 10.07.2019 00:00:00 - 16.07.2019 00:00:00 (CEST)Strasbourg, France (7190): Ensoleillement: 10.07.2019 00:00:00 - 16.07.2019 00:00:00 (CEST)Strasbourg, France (7190): Quantités de précipitations: 10.07.2019 00:00:00 - 16.07.2019 00:00:00 (CEST)
Date & Time tt [°C] td [°C] tt 5cm [°C] tt -20cm [°C] tt -100cm [°C] ff [km/h] ff [knt] fx [km/h] fx [knt] dd ppp [hPa] vv [km] sd [min] rr [mm]
16.07.2019 00:00:00 - - - - - - - - - - - - - -
15.07.2019 23:00:00 17,3 11,1 14,2 25,3 21,6 11 6 16 9 N 1017,5 57 0 0,0
15.07.2019 22:00:00 19,5 11,0 16,9 25,3 21,6 14 7 26 14 NNE 1017,0 18 0 0,0
15.07.2019 21:00:00 21,6 11,3 20,2 25,3 21,6 10 6 21 11 NNE 1016,3 53 48 0,0
15.07.2019 20:00:00 23,4 11,1 26,6 25,1 21,7 14 7 24 13 N 1016,0 32 60 0,0
15.07.2019 19:00:00 24,3 11,3 28,8 24,6 21,7 19 10 41 22 N 1015,8 49 60 0,0
15.07.2019 18:00:00 25,0 11,9 27,6 24,1 21,7 9 5 26 14 N 1015,8 24 57 0,0
15.07.2019 17:00:00 24,8 13,4 26,7 23,5 21,7 14 7 29 16 N 1016,1 20 54 0,0
15.07.2019 16:00:00 23,3 12,0 27,4 22,9 21,7 17 9 34 18 NNE 1016,4 35 49 0,0
15.07.2019 15:00:00 23,3 12,9 26,7 22,4 21,7 16 9 29 16 N 1016,4 23 38 0,0
15.07.2019 14:00:00 22,0 13,4 25,6 21,9 21,7 14 8 27 14 N 1016,8 20 15 0,0
15.07.2019 13:00:00 20,7 12,4 24,7 21,6 21,7 14 8 27 15 N 1017,1 34 30 0,0
15.07.2019 12:00:00 19,2 12,2 23,2 21,4 21,7 14 8 32 17 N 1017,5 32 21 0,0
15.07.2019 11:00:00 18,5 12,3 19,9 21,3 21,7 17 9 41 22 N 1017,5 20 9 0,0
15.07.2019 10:00:00 17,0 11,3 18,2 21,3 21,7 16 9 31 17 N 1017,7 44 3 0,0
15.07.2019 09:00:00 16,7 10,8 19,3 21,5 21,7 21 11 30 16 N 1017,4 29 60 0,0
15.07.2019 08:00:00 15,2 10,2 14,7 21,6 21,7 13 7 22 12 N 1017,4 34 60 0,0
15.07.2019 07:00:00 13,3 10,1 11,4 21,9 21,7 14 8 36 19 NNW 1017,1 33 50 0,0
15.07.2019 06:00:00 11,9 9,6 11,1 22,2 21,7 9 5 18 10 NNW 1017,4 28 0 0,0
15.07.2019 05:00:00 12,9 9,9 11,9 22,4 21,8 11 6 22 12 N 1017,2 32 0 0,0
15.07.2019 04:00:00 13,4 10,4 12,2 22,7 21,8 12 6 17 9 N 1017,2 37 0 0,0
15.07.2019 03:00:00 13,4 10,6 12,3 23,0 21,8 12 6 20 11 N 1017,5 43 0 0,0
15.07.2019 02:00:00 13,9 10,7 12,5 23,3 21,8 12 6 26 14 N 1017,6 44 0 0,0
15.07.2019 01:00:00 14,5 11,3 13,4 23,6 21,8 20 11 28 15 N 1017,3 38 0 0,0
15.07.2019 00:00:00 15,1 11,3 13,9 23,8 21,8 16 9 25 13 N 1017,4 44 0 0,0
14.07.2019 23:00:00 15,9 12,3 14,8 24,1 21,8 11 6 19 11 N 1017,5 26 0 0,0
14.07.2019 22:00:00 16,4 12,6 15,7 24,3 21,8 9 5 22 12 N 1017,2 24 0 0,0
14.07.2019 21:00:00 17,0 13,1 16,6 24,4 21,8 12 7 24 13 N 1016,8 23 0 0,0
14.07.2019 20:00:00 17,2 13,9 16,2 24,5 21,8 16 9 27 15 N 1016,7 22 0 0,2
14.07.2019 19:00:00 17,9 13,6 18,0 24,4 21,8 16 8 24 13 N 1016,6 16 0 0,0
14.07.2019 18:00:00 18,7 13,3 19,7 24,2 21,8 17 9 33 18 N 1016,6 29 0 0,0
14.07.2019 17:00:00 19,2 13,4 21,6 23,9 21,8 21 11 39 21 N 1016,7 31 10 0,0
14.07.2019 16:00:00 19,4 13,3 20,9 23,6 21,9 26 14 39 21 NNE 1016,6 34 19 0,0
14.07.2019 15:00:00 18,8 13,2 22,3 23,2 21,9 27 14 46 25 NE 1017,0 22 14 0,0
14.07.2019 14:00:00 18,8 12,5 23,2 22,8 21,9 32 17 46 25 NNE 1017,2 22 48 0,0
14.07.2019 13:00:00 19,7 13,4 22,8 22,5 21,9 29 16 41 22 NNE 1017,2 26 23 0,0
14.07.2019 12:00:00 18,7 13,8 19,3 22,4 21,9 24 13 35 19 NNE 1017,1 29 2 0,0
14.07.2019 11:00:00 19,1 14,1 20,0 22,3 21,9 21 11 33 18 N 1016,9 14 0 0,0
14.07.2019 10:00:00 18,2 13,9 19,7 22,3 21,9 21 11 36 20 NNE 1017,2 14 0 0,0
14.07.2019 09:00:00 18,1 14,2 18,6 22,4 21,9 19 10 29 16 NNE 1016,8 20 7 0,0
14.07.2019 08:00:00 17,0 14,3 16,1 22,6 21,9 12 7 18 10 N 1016,6 17 0 0,0
14.07.2019 07:00:00 15,8 13,6 14,3 22,8 21,9 8 4 13 7 N 1016,8 20 0 0,0
14.07.2019 06:00:00 14,6 12,8 13,6 23,1 22,0 8 5 11 6 NNW 1016,9 24 0 0,0
14.07.2019 05:00:00 14,7 12,6 13,0 23,3 22,0 4 2 8 4 N 1017,1 26 0 0,0
14.07.2019 04:00:00 14,3 12,3 12,8 23,6 21,9 5 3 8 5 NW 1017,5 23 0 0,0
14.07.2019 03:00:00 14,7 12,6 13,0 23,9 22,0 2 1 13 7 NNE 1017,4 19 0 0,0
14.07.2019 02:00:00 13,9 11,9 12,7 24,1 22,0 10 5 12 7 NW 1017,7 19 0 0,0
14.07.2019 01:00:00 15,6 12,2 13,4 24,4 22,0 5 3 16 8 NNE 1018,1 28 0 0,0
14.07.2019 00:00:00 17,0 11,9 14,4 24,7 22,0 9 5 22 12 N 1018,2 28 0 0,0
13.07.2019 23:00:00 17,8 11,4 15,6 24,9 22,0 10 5 12 7 NW 1018,0 38 0 0,0
13.07.2019 22:00:00 18,5 11,8 15,9 25,0 22,0 6 4 14 8 W 1017,7 16 1 0,0
13.07.2019 21:00:00 21,2 12,3 19,8 24,9 22,0 7 4 17 9 WNW 1017,2 52 60 0,0
13.07.2019 20:00:00 23,2 10,3 26,3 24,8 22,0 10 5 23 12 NNW 1016,9 35 60 0,0
13.07.2019 19:00:00 23,8 10,8 24,7 24,6 22,1 14 8 24 13 NNW 1016,9 26 44 0,0
13.07.2019 18:00:00 23,3 11,0 25,6 24,2 22,1 17 9 31 17 WNW 1017,0 39 46 0,0
13.07.2019 17:00:00 23,2 10,3 26,5 23,7 22,1 13 7 34 19 NNW 1017,3 30 41 0,0
13.07.2019 16:00:00 24,1 10,7 26,2 23,2 22,1 12 7 42 23 NW 1017,4 27 46 0,0
13.07.2019 15:00:00 23,5 9,8 26,0 22,8 22,1 13 7 29 16 WNW 1017,6 23 29 0,0
13.07.2019 14:00:00 21,8 10,3 24,8 22,5 22,1 11 6 27 14 NW 1018,2 14 24 0,0
13.07.2019 13:00:00 21,3 11,6 22,3 22,4 22,1 7 4 22 12 W 1018,5 28 8 0,0
13.07.2019 12:00:00 20,1 11,8 20,6 22,3 22,1 8 5 15 8 WNW 1018,5 40 3 0,0
13.07.2019 11:00:00 19,0 11,8 20,3 22,2 22,1 3 2 19 11 SW 1018,5 42 11 0,0
13.07.2019 10:00:00 19,5 12,5 20,4 22,2 22,1 7 4 21 11 NW 1018,3 32 19 0,0
13.07.2019 09:00:00 17,9 12,3 18,3 22,3 22,1 11 6 22 12 NW 1018,1 38 20 0,0
13.07.2019 08:00:00 16,8 12,7 17,2 22,5 22,1 7 4 13 7 WNW 1017,9 36 27 0,2
13.07.2019 07:00:00 14,9 12,6 12,4 22,9 22,2 5 3 11 6 WSW 1017,5 22 48 0,0
13.07.2019 06:00:00 13,5 12,2 11,4 23,1 22,1 3 1 17 9 S 1017,2 18 0 0,0
13.07.2019 05:00:00 14,1 12,1 13,0 23,5 22,2 11 6 20 11 W 1016,7 30 0 0,0
13.07.2019 04:00:00 13,9 12,3 11,7 23,8 22,2 13 7 17 9 W 1016,5 37 0 0,0
13.07.2019 03:00:00 15,0 12,3 13,2 24,1 22,2 9 5 23 12 W 1016,2 39 0 0,0
13.07.2019 02:00:00 15,2 12,7 13,2 24,4 22,2 12 6 18 10 W 1016,2 60 0 0,0
13.07.2019 01:00:00 16,1 12,6 13,9 24,7 22,2 5 3 12 7 SW 1015,9 60 0 0,0
13.07.2019 00:00:00 17,0 13,5 15,9 25,0 22,2 6 3 20 11 W 1015,7 59 0 0,0
12.07.2019 23:00:00 17,2 14,5 15,8 25,3 22,2 2 1 16 9 NE 1015,0 51 0 0,2
12.07.2019 22:00:00 17,6 13,7 16,3 25,5 22,2 13 7 44 24 NNW 1014,7 60 2 0,0
12.07.2019 21:00:00 18,8 14,3 16,7 25,5 22,2 26 14 42 23 NNW 1013,2 3,5 10 1,4
12.07.2019 20:00:00 21,4 15,0 17,4 25,5 22,2 14 7 32 18 N 1011,8 55 33 0,0
12.07.2019 19:00:00 19,1 14,4 17,0 25,4 22,2 25 13 60 33 NNW 1011,4 16 12 0,6
12.07.2019 18:00:00 26,1 12,5 27,5 25,1 22,2 24 13 44 24 WSW 1010,6 38 50 0,0
12.07.2019 17:00:00 27,0 12,6 28,1 24,8 22,2 29 16 48 26 W 1010,9 23 44 0,0
12.07.2019 16:00:00 26,5 12,5 27,7 24,5 22,2 27 15 46 25 W 1011,2 24 19 0,0
12.07.2019 15:00:00 25,6 13,8 27,3 24,0 22,2 16 9 27 15 W 1011,4 42 8 0,0
12.07.2019 14:00:00 24,9 16,1 28,5 23,5 22,2 7 4 22 12 SSW 1011,7 37 45 0,0
12.07.2019 13:00:00 22,5 16,5 22,1 23,3 22,2 9 5 24 13 SSE 1012,4 46 20 0,2
12.07.2019 12:00:00 21,3 15,2 22,3 23,1 22,3 11 6 25 13 S 1012,8 39 30 0,0
12.07.2019 11:00:00 19,3 15,4 17,5 23,2 22,3 10 6 22 12 SE 1013,3 27 17 0,0
12.07.2019 10:00:00 17,0 15,3 15,9 23,3 22,3 8 4 21 12 SE 1013,6 19 0 0,2
12.07.2019 09:00:00 16,5 14,9 15,6 23,5 22,3 13 7 26 14 S 1013,0 3,0 0 1,0
12.07.2019 08:00:00 16,5 15,0 15,1 23,7 22,3 11 6 18 10 SSW 1013,4 12 0 0,0
12.07.2019 07:00:00 15,9 14,3 14,7 23,9 22,3 11 6 32 17 S 1013,0 15 0 4,7
12.07.2019 06:00:00 15,3 14,3 14,1 24,2 22,3 16 9 28 15 W 1014,3 4,0 0 0,2
12.07.2019 05:00:00 15,4 14,1 14,3 24,4 22,3 5 3 18 10 S 1013,1 11 0 1,0
12.07.2019 04:00:00 16,3 13,2 14,9 24,6 22,3 7 4 13 7 SSW 1013,7 6 0 0,0
12.07.2019 03:00:00 16,0 11,8 14,2 24,8 22,3 8 5 12 7 S 1013,7 34 0 0,0
12.07.2019 02:00:00 17,4 11,9 15,6 25,0 22,3 7 4 14 8 S 1013,9 45 0 0,0
12.07.2019 01:00:00 18,3 11,4 16,2 25,2 22,3 3 1 16 9 S 1014,8 56 0 0,0
12.07.2019 00:00:00 19,7 10,9 19,0 25,4 22,3 8 4 17 9 S 1014,7 60 0 0,0
11.07.2019 23:00:00 20,3 10,1 18,9 25,5 22,3 10 5 22 12 SE 1014,9 60 0 0,0
11.07.2019 22:00:00 20,3 10,7 19,4 25,6 22,3 5 3 12 7 ESE 1014,8 60 0 0,0
11.07.2019 21:00:00 21,4 11,1 20,8 25,6 22,3 8 5 16 9 SSW 1014,3 59 0 0,0
11.07.2019 20:00:00 22,2 11,6 22,6 25,5 22,3 11 6 21 12 S 1013,7 58 5 0,0
11.07.2019 19:00:00 22,6 10,7 23,8 25,3 22,3 9 5 22 12 S 1014,1 60 29 0,0
11.07.2019 18:00:00 23,4 11,8 25,2 25,0 22,3 10 6 21 11 S 1013,9 31 42 0,0
11.07.2019 17:00:00 23,0 11,4 26,2 24,8 22,3 9 5 19 11 S 1014,3 48 13 0,0
11.07.2019 16:00:00 22,2 11,0 26,3 24,6 22,3 8 4 19 10 ESE 1014,8 44 21 0,0
11.07.2019 15:00:00 21,4 12,8 21,0 24,5 22,3 14 8 27 14 S 1014,8 34 14 0,0
11.07.2019 14:00:00 18,7 11,5 18,5 24,5 22,3 8 5 19 10 S 1015,7 32 0 0,2
11.07.2019 13:00:00 18,8 12,1 19,1 24,5 22,3 7 4 14 7 S 1015,8 22 0 0,0
11.07.2019 12:00:00 18,7 12,0 20,0 24,6 22,3 5 3 9 5 SSE 1015,9 37 0 0,0
11.07.2019 11:00:00 18,2 11,5 18,2 24,6 22,3 6 4 11 6 SSE 1015,6 42 0 0,0
11.07.2019 10:00:00 18,0 10,4 18,4 24,8 22,3 6 3 10 5 SE 1015,5 31 0 0,0
11.07.2019 09:00:00 16,8 11,1 15,6 24,9 22,3 0 0 9 5 N 1015,5 33 0 0,0
11.07.2019 08:00:00 16,1 10,4 15,6 25,1 22,3 3 2 8 4 SSW 1015,4 38 0 0,0
11.07.2019 07:00:00 15,3 9,4 13,5 25,4 22,3 2 1 9 5 SSW 1015,5 46 9 0,0
11.07.2019 06:00:00 14,2 9,6 13,2 25,7 22,3 6 3 8 5 SSE 1015,1 54 0 0,0
11.07.2019 05:00:00 14,8 10,2 13,2 26,0 22,3 0 0 8 5 N 1015,3 55 0 0,0
11.07.2019 04:00:00 15,1 10,3 13,9 26,3 22,3 6 4 9 5 SW 1015,6 54 0 0,0
11.07.2019 03:00:00 15,8 10,1 14,1 26,6 22,3 3 2 7 4 SE 1015,8 45 0 0,0
11.07.2019 02:00:00 15,1 7,4 13,7 27,0 22,3 4 2 6 3 SSE 1016,4 60 0 0,0
11.07.2019 01:00:00 15,6 7,6 13,9 27,3 22,4 5 3 9 5 SSW 1016,7 60 0 0,0
11.07.2019 00:00:00 16,1 6,8 13,2 27,7 22,4 5 3 11 6 SW 1017,2 58 0 0,0
10.07.2019 23:00:00 16,8 6,9 13,9 27,9 22,4 6 4 8 5 SW 1017,0 56 0 0,0
10.07.2019 22:00:00 18,2 7,3 14,7 28,1 22,4 4 2 11 6 ESE 1017,0 50 3 0,0
10.07.2019 21:00:00 22,4 5,8 20,5 28,1 22,4 6 4 14 7 N 1016,8 35 54 0,0
10.07.2019 20:00:00 24,6 2,7 27,9 28,0 22,4 8 4 18 10 NW 1016,8 52 60 0,0
10.07.2019 19:00:00 25,6 3,5 30,7 27,6 22,4 8 5 28 15 NW 1016,9 53 60 0,0
10.07.2019 18:00:00 25,5 5,1 31,3 27,1 22,4 13 7 25 14 N 1017,2 34 60 0,0
10.07.2019 17:00:00 25,4 5,0 32,5 26,5 22,4 13 7 28 15 NNW 1017,3 60 60 0,0
10.07.2019 16:00:00 25,1 5,8 32,1 25,8 22,4 9 5 27 15 NNE 1017,8 54 60 0,0
10.07.2019 15:00:00 24,2 5,5 31,4 25,1 22,4 9 5 31 17 N 1018,2 51 60 0,0
10.07.2019 14:00:00 23,6 7,2 31,0 24,5 22,4 10 5 39 21 NE 1018,5 49 60 0,0
10.07.2019 13:00:00 22,6 6,4 29,4 24,0 22,4 10 6 32 17 NNE 1018,9 19 60 0,0
10.07.2019 12:00:00 21,7 6,4 28,0 23,7 22,4 9 5 25 14 E 1019,6 35 60 0,0
10.07.2019 11:00:00 20,3 5,5 26,7 23,6 22,4 11 6 24 13 N 1019,8 32 60 0,0
10.07.2019 10:00:00 19,0 6,1 23,7 23,6 22,4 6 3 16 9 N 1020,2 55 60 0,0
10.07.2019 09:00:00 17,7 6,5 20,7 23,8 22,4 8 5 17 9 NE 1020,1 50 60 0,0
10.07.2019 08:00:00 15,0 6,8 14,2 24,1 22,4 10 5 19 10 NNE 1020,4 48 60 0,0
10.07.2019 07:00:00 12,3 6,3 7,6 24,5 22,4 8 4 11 6 N 1020,4 46 54 0,0
10.07.2019 06:00:00 9,0 5,7 6,3 24,9 22,4 9 5 11 6 NNW 1020,5 48 0 0,0
10.07.2019 05:00:00 9,1 5,6 6,2 25,3 22,4 3 2 11 6 NE 1020,3 53 0 0,0
10.07.2019 04:00:00 11,1 5,6 7,7 25,7 22,4 5 3 8 5 N 1019,8 59 0 0,0
10.07.2019 03:00:00 10,9 5,8 8,2 26,1 22,4 5 3 9 5 NNW 1019,8 59 0 0,0
10.07.2019 02:00:00 11,8 6,1 9,5 26,5 22,4 4 2 13 7 NNW 1020,0 58 0 0,0
10.07.2019 01:00:00 11,7 6,2 10,9 26,9 22,5 11 6 14 8 NNW 1020,1 51 0 0,0
10.07.2019 00:00:00 13,9 6,0 11,0 27,3 22,4 8 5 30 16 N 1019,9 52 0 0,0

tt = Température de l'air
td = dewpoint
tt 5cm = Température de l'air 5cm
tt -20cm = Température de l'air -20cm
tt -100cm = Température de l'air -100cm
ff = Vitesse du vent
fx = gusts
dd = Direction du vent
ppp = reduced air pressure
vv = visibility
sd = Ensoleillement
rr = Quantités de précipitations

stations d'obs. à proximité